Weather in Nadezhny

Russia / Zabaykalsky Krai     50°01′37″N   111°49′28″E
temp.,
°C
wind,
m/s
gust,
m/s
humid.,
%
clouds,
%
prec.,
mm/h
press.,
hPa
HPBL,
m
6 may, thu
thu600:00−1nw3691100 0.1 1006296
03:00−3nw378299 0.1 1008459
06:00−5nnw378595 0.0 1011356
09:00−1nw4859100 0.0 1011717
12:00+3nw5751100 0.0 10101076
15:00+5nw664681 0.0 10091384
18:00+5nw573995 0.0 10081809
21:00+1wnw410485 0.0 1010671
7 may, fri
fri700:00−4w1265100 0.0 101145
03:00−2w1565100 0.0 1007379
06:00−3sw1291100 0.7 1004153
09:00+2nw7166025 1.8 10011631
12:00+2nnw7125972 0.4 10011808
15:00+3nnw7126687 1.7 10021736
18:00+4nnw6135993 0.9 10031791
21:00+1nnw4108861 2.5 1008932
8 may, sat
sat800:00−2nw349623 0.0 101271
03:00−3nw239833 0.1 101456
06:00−3nw229739 0.0 101430
09:00+3nw246672 0.1 10121060
12:00+6nw345114 0.0 10101441
15:00+9nw454198 0.1 10072157
18:00+8nw454896 0.3 10061487
21:00+3wnw2274100 0.6 100911
9 may, sun
sun900:000nw228039 0.0 101126
03:00−1nw348348 0.0 101168
06:00−2nw239639 0.4 101385
09:00+3nw486544 0.4 10111083
12:00+6nw4854100 0.1 10101566
15:00+7nw685780 0.5 10081632
18:00+7nw475745 0.3 10081454
21:00+2nnw1178100 0.3 101010
10 may, mon
mon1000:000nnw118796 0.0 101110
03:00−1nw118916 0.0 101210
06:00−2n1190100 0.0 101210
09:00+5sse136048 0.0 1008381
12:00+3s3491100 2.3 1008390
15:00+1wnw3798100 11.6 1009341
18:00+1nw41192100 6.4 1010923
21:00−1nnw41194100 9.2 1011936